Hourly Data Report for September 29, 2017

All times are specified in Local Standard Time (LST). Add 1 hour to adjust for Daylight Saving Time where and when it is observed.

KUGLUKTUK A
NUNAVUT

67°49'00.000" N
115°08'38.000" W
22.60 m
2300903
71938
YCO

Download Data

Hourly Data (September 2017)
Hourly Data Report for September 29, 2017
Temp Definition
°C
Dew Point Temp Definition
°C
Rel Hum Definition
%
Wind Dir Definition
10's deg

Wind Spd Definition
km/h
Visibility Definition
km
Stn Press Definition
kPa
Hmdx Definition


Wind Chill Definition


Weather Definition


TIME
00:00 Legend Double Dagger 7.1 6.9 99 23 13 16.1 99.56     LegendNANA
01:00 Legend Double Dagger 7.1 6.7 97 26 13 16.1 99.56     Drizzle
02:00 Legend Double Dagger 7.1 6.8 98 23 12 24.1 99.50     Cloudy
03:00 Legend Double Dagger 6.9 6.4 96 26 15 24.1 99.59     LegendNANA
04:00 Legend Double Dagger 6.7 5.8 94 27 17 24.1 99.59     LegendNANA
05:00 Legend Double Dagger 5.0 4.6 97 26 18 24.1 99.67     Mainly Clear
06:00 Legend Double Dagger 3.9 3.6 98 26 15 24.1 99.67     LegendNANA
07:00 Legend Double Dagger 4.3 3.7 96 25 19 24.1 99.68     LegendNANA
08:00 Legend Double Dagger 4.2 3.6 96 24 16 24.1 99.74     Mostly Cloudy
09:00 Legend Double Dagger 5.2 4.1 92 26 14 24.1 99.77     LegendNANA
10:00 Legend Double Dagger 6.2 4.7 90 26 18 24.1 99.79     LegendNANA
11:00 Legend Double Dagger 6.4 4.8 90 27 21 24.1 99.85     Mostly Cloudy
12:00 Legend Double Dagger 7.2 5.4 88 29 17 24.1 99.91     Rain Showers
13:00 Legend Double Dagger 7.2 5.0 85 27 23 24.1 99.97     LegendNANA
14:00 Legend Double Dagger 7.2 4.6 84 29 19 24.1 100.04     Cloudy
15:00 Legend Double Dagger 5.6 3.8 88 31 27 19.3 100.13     Rain Showers
16:00 Legend Double Dagger 4.7 3.4 91 30 22 9.7 100.23     Rain Showers,Fog
17:00 Legend Double Dagger 4.1 3.2 94 29 22 9.7 100.30     Rain Showers,Fog
18:00 Legend Double Dagger 4.2 4.0 98 34 18 8.1 100.38     Drizzle,Fog
19:00 Legend Double Dagger 3.6 3.5 99 1 17 2.8 100.49     Fog
20:00 Legend Double Dagger 3.3 3.2 99 3 17 0.2 100.57     Fog
21:00 Legend Double Dagger 3.1 3.0 99 5 12 1.2 100.66     Fog
22:00 Legend Double Dagger 2.9 2.8 99 7 15 6.4 100.71     Fog
23:00 Legend Double Dagger 2.9 2.8 99 6 12 0.4 100.77     Fog

Notes on Data Quality.

Legend

  • E = Estimated
  • M = Missing
  • NA = Not Available
  • ‡ = Partner data that is not subject to review by the National Climate Archives
Date modified: